Homer, AK

1:16 PM AKDT on May 25, 2018 (GMT -0800)
Homer

Weather History for PAHO - March, 2015

Change the Weather History Date:

Wednesday, March 11, 2015

  Actual Average Record
Temperature  
Mean Temperature 18 °F -  
Max Temperature 26 °F 36 °F 49 °F (1937)
Min Temperature 9 °F 22 °F -8 °F (1966)
Degree Days  
Heating Degree Days 48    
Moisture  
Dew Point 0 °F    
Average Humidity 47    
Maximum Humidity 64    
Minimum Humidity 30    
Precipitation  
Precipitation 0.00 in - - ()
Sea Level Pressure  
Sea Level Pressure 29.84 in    
Wind  
Wind Speed 5 mph (NNE)    
Max Wind Speed 12 mph    
Max Gust Speed -    
Visibility 10 miles    
Events      
Averages and records for this station are not official NWS values.
T = Trace of Precipitation, MM = Missing Value Source: NWS Daily Summary

Daily Weather History Graph

Daily Weather History Graph

Search for Another Location

Airport or City:

Astronomy

Mar. 11, 2015 Rise Set
Actual Time 8:34 AM AKDT 7:58 PM AKDT
Civil Twilight 7:53 AM AKDT 8:39 PM AKDT
Nautical Twilight 7:05 AM AKDT 9:27 PM AKDT
Astronomical Twilight 6:15 AM AKDT 10:18 PM AKDT
Moon 2:06 AM AKDT (3/11) 10:36 AM AKDT (3/11)
Length of Visible Light 12h 46m
Length of Day
11h 24m
Waning Gibbous, 69% of the Moon is Illuminated
Mar 11
Waning Gibbous
Mar 13
Last Quarter
Mar 20
New
Mar 26
First Quarter
Apr 4
Full

Hourly Weather History & Observations

Time (AKDT) Temp. Windchill Dew Point Humidity Pressure Visibility Wind Dir Wind Speed Gust Speed Precip Events Conditions
12:53 AM 17.1 °F 10.0 °F -4.0 °F 39% 30.07 in 10.0 mi NNE 4.6 mph - N/A   Clear
1:53 AM 14.0 °F 5.1 °F -2.9 °F 47% 30.06 in 10.0 mi NE 5.8 mph - N/A   Clear
2:53 AM 14.0 °F 8.2 °F -2.0 °F 49% 30.04 in 10.0 mi NNE 3.5 mph - N/A   Clear
3:53 AM 12.0 °F 4.1 °F -2.0 °F 53% 30.02 in 10.0 mi North 4.6 mph - N/A   Clear
4:53 AM 12.0 °F 5.9 °F -2.0 °F 53% 30.01 in 10.0 mi NNW 3.5 mph - N/A   Clear
5:53 AM 12.0 °F - -0.9 °F 56% 29.98 in 10.0 mi Calm Calm - N/A   Clear
6:53 AM 12.0 °F 4.1 °F -2.0 °F 53% 29.96 in 10.0 mi NNE 4.6 mph - N/A   Clear
7:53 AM 10.9 °F - -2.0 °F 56% 29.95 in 10.0 mi Calm Calm - N/A   Clear
8:53 AM 9.0 °F 2.4 °F -0.9 °F 64% 29.93 in 10.0 mi North 3.5 mph - N/A   Clear
9:53 AM 15.1 °F 6.4 °F -0.0 °F 51% 29.91 in 10.0 mi North 5.8 mph - N/A   Clear
10:53 AM 19.0 °F 11.1 °F 1.9 °F 47% 29.89 in 10.0 mi ENE 5.8 mph - N/A   Clear
11:53 AM 19.9 °F 13.4 °F 3.9 °F 50% 29.87 in 10.0 mi East 4.6 mph - N/A   Clear
12:53 PM 21.0 °F 14.6 °F 5.0 °F 50% 29.83 in 10.0 mi Variable 4.6 mph - N/A   Clear
1:53 PM 23.0 °F 15.8 °F 7.0 °F 50% 29.81 in 10.0 mi SE 5.8 mph - N/A   Clear
2:53 PM 24.1 °F 18.2 °F 5.0 °F 44% 29.78 in 10.0 mi Variable 4.6 mph - N/A   Clear
3:53 PM 25.0 °F 14.2 °F -2.9 °F 30% 29.75 in 10.0 mi North 11.5 mph - N/A   Clear
4:53 PM 26.1 °F 15.6 °F -0.0 °F 32% 29.72 in 10.0 mi NE 11.5 mph - N/A   Clear
5:53 PM 25.0 °F 15.5 °F -0.9 °F 33% 29.70 in 10.0 mi NNE 9.2 mph - N/A   Clear
6:53 PM 23.0 °F 13.9 °F 1.0 °F 39% 29.68 in 10.0 mi NNW 8.1 mph - N/A   Clear
7:53 PM 19.9 °F 8.6 °F 1.0 °F 44% 29.68 in 10.0 mi North 10.4 mph - N/A   Clear
8:53 PM 19.0 °F 7.5 °F 1.0 °F 46% 29.67 in 10.0 mi North 10.4 mph - N/A   Clear
9:53 PM 17.1 °F 7.6 °F -0.0 °F 47% 29.66 in 10.0 mi North 6.9 mph - N/A   Clear
10:53 PM 14.0 °F 3.9 °F -0.9 °F 52% 29.65 in 10.0 mi NE 6.9 mph - N/A   Clear
11:53 PM 14.0 °F 5.1 °F -2.0 °F 49% 29.63 in 10.0 mi North 5.8 mph - N/A   Clear